Regional Weather Roundup
Issued by NWS

Home | Current Version | Previous Version | Graphics & Text | Print | Product List | Glossary On
Versions: 1 2 3 4 5 6 7 8 9 10 11 12 13 14 15 16 17 18 19 20 21 22 23 24 25 26 27 28 29 30 31 32 33 34 35 36 37 38 39 40 41 42 43 44 45 46 47 48 49 50
000
ASUS43 KOAX 282102
RWRNE

WEATHER ROUNDUP FOR NEBRASKA
NATIONAL WEATHER SERVICE OMAHA NE
400 PM CDT THU JUL 28 2016

NOTES: SATELLITE DATA IS BEING USED TO AUGMENT CLOUD COVER ABOVE
       12000 FEET.
       "FAIR" INDICATES FEW OR NO CLOUDS BELOW 12,000 FEET WITH NO
       SIGNIFICANT WEATHER AND/OR OBSTRUCTIONS TO VISIBILITY.

  * THESE STATIONS DO NOT REPORT WEATHER SUCH AS RAIN...SNOW OR FOG.

NEZ001>004-019>022-054>056-282200-
NEBRASKA PANHANDLE

CITY           SKY/WX    TMP DP  RH WIND       PRES   REMARKS
SCOTTSBLUFF    SUNNY     77  54  44 NE6       30.16F
ALLIANCE       MOSUNNY   73  58  59 NW7G20    30.16F
CHADRON        PTSUNNY   80  55  42 W9        30.12F
KIMBALL        SUNNY     74  53  47 S3        30.21S
SIDNEY         SUNNY     77  55  46 VRB6      30.17S
$$

NEZ057>060-069>072-079>082-282200-
SOUTHWEST NEBRASKA

CITY           SKY/WX    TMP DP  RH WIND       PRES   REMARKS
NORTH PLATTE   CLOUDY    69  65  86 NE12      30.08R
IMPERIAL       CLOUDY    73  60  63 NE14      30.10F
LEXINGTON      RAIN      70  66  88 NW13      30.12S
MCCOOK         CLOUDY    65  61  87 SE7       30.10R
OGALLALA       SUNNY     76  53  44 E5        30.11S
$$

NEZ005>010-023>029-035>040-094-282200-
NORTH CENTRAL NEBRASKA

CITY           SKY/WX    TMP DP  RH WIND       PRES   REMARKS
VALENTINE      PTSUNNY   76  59  55 SE3       30.08F
AINSWORTH      PTSUNNY   74  64  72 CALM      30.09F
BROKEN BOW     CLOUDY    73  66  78 CALM      30.06F
O`NEILL        CLOUDY    77  57  50 CALM      30.07F
ORD            RAIN      75  64  68 CALM      30.05F
THEDFORD       CLOUDY    76  58  53 N5        30.11R
$$

NEZ041-046>049-061>064-073>077-083>087-282200-
SOUTH CENTRAL NEBRASKA

CITY           SKY/WX    TMP DP  RH WIND       PRES   REMARKS
GRAND ISLAND   CLOUDY    83  63  50 NE10      30.04F
AURORA         PTSUNNY   80  65  58 NE5       30.02F
HASTINGS       CLOUDY    82  66  58 N9        30.05R
HEBRON         CLOUDY    84  65  52 NE6       30.00R
HOLDREGE       LGT RAIN  73  67  81 NW7       30.07F
KEARNEY *      CLOUDY    82  21  10 CALM      30.07F
YORK           MOSUNNY   82  66  57 NE9       30.02S
$$

NEZ011>018-030>034-042>045-282200-
NORTHEAST NEBRASKA

CITY           SKY/WX    TMP DP  RH WIND       PRES   REMARKS
NORFOLK        CLOUDY    80  59  48 N10       30.03F
ALBION         CLOUDY    77  63  60 N3        30.06S
BLAIR          MOSUNNY   82  62  51 N9        30.00F
FREMONT        SUNNY     81  60  49 N6        30.01F
TEKAMAH        PTSUNNY   83  60  45 NW13G20   29.99F
WAYNE          MOSUNNY   79  63  58 N8        30.02F
$$

NEZ050>053-065>068-078-088>093-282200-
SOUTHEAST NEBRASKA

CITY           SKY/WX    TMP DP  RH WIND       PRES   REMARKS
LINCOLN        MOSUNNY   86  65  49 NE15G22   29.98F
OMAHA EPPLEY   MOSUNNY   85  65  51 N14       29.97F
BEATRICE       SUNNY     86  65  48 NE8       29.97F
FALLS CITY     SUNNY     86  66  51 E6        29.96F
NEBRASKA CITY  SUNNY     83  62  49 NE9       29.98F
PLATTSMOUTH    MOSUNNY   83  65  54 N6        29.99S
$$

NEZ044-045-051>053-067-282200-
OMAHA AREA

CITY           SKY/WX    TMP DP  RH WIND       PRES   REMARKS
OMAHA EPPLEY   MOSUNNY   85  65  51 N14       29.97F
BLAIR          MOSUNNY   82  62  51 N9        30.00F
FREMONT        SUNNY     81  60  49 N6        30.01F
MILLARD        SUNNY     83  65  53 N8        29.98F
PLATTSMOUTH    MOSUNNY   83  65  54 N6        29.99S
WAHOO          FAIR      82  64  54 N9        29.99F
$$




USA.gov is the U.S. government's official web portal to all federal, state and local government web resources and services.